Weather observations for the past three days for
Minneapolis, Minneapolis-St. Paul International Airport
Imperial (Metric)
Date Time (cdt) Wind (mph) Vis. (mi.) Weather Sky Cond. Temperature (ºF) Relative Humidity Wind Chill (°F) Heat Index (°F) Pressure Precipitation (in)
Air Dwpt 6 hour altimeter (in) sea level (mb) 1 hr 3 hr 6 hr
Max. Min.
22 09:53 Calm 10.00 Overcast BKN009 OVC014 70 64.9 84% 29.84 1010.1
22 08:53 NW 7 1.00 Fog/Mist OVC003 68 66 93% 29.85 1010.5
22 07:53 N 8 0.50 Fog OVC004 66.9 64.9 93% 29.85 1010.6
22 06:53 N 5 8.00 Overcast OVC004 68 66 68 66 93% 29.86 1011.0 0.26
22 05:53 Calm 9.00 Mostly Cloudy BKN006 66.9 64.9 93% 29.86 1011.0
22 04:53 SE 8 10.00 Overcast OVC007 66 64.9 96% 29.86 1010.8
22 03:53 NW 12 10.00 Overcast OVC005 66 64.9 96% 29.88 1011.6 0.02 0.26
22 02:53 SE 12 10.00 Light Rain OVC006 66.9 66 97% 29.87 1011.2 0.08
22 01:53 N 6 7.00 Rain OVC005 66.9 66 97% 29.93 1013.3 0.16
22 00:53 E 7 5.00 Rain Fog/Mist SCT006 SCT070 OVC095 66.9 64.9 69.1 66.9 93% 29.97 1014.5 0.2 0.25
21 23:53 E 12 5.00 Thunderstorm in Vicinity Rain Fog/Mist OVC005CB 66.9 64.9 93% 29.98 1014.9 0.05
21 22:53 NE 8 7.00 Light Rain OVC006 66.9 64.9 93% 29.99 1015.4
21 21:53 E 13 10.00 Light Rain OVC008 66.9 64 91% 30 1015.6
21 20:53 E 10 10.00 Overcast OVC010 68 64.9 90% 30 1015.7
21 19:53 E 8 10.00 Overcast OVC012 68 64.9 90% 30.01 1016.0
21 18:53 E 9 10.00 Overcast OVC010 69.1 64.9 70 68 87% 30.04 1016.9 0.03 0.11
21 17:53 E 10 10.00 Light Rain OVC010 69.1 64.9 87% 30.07 1017.8
21 16:53 E 10 10.00 Overcast OVC010 69.1 64.9 87% 30.07 1018.1
21 15:53 E 10 10.00 Overcast OVC011 69.1 66 90% 30.09 1018.7 0.08
21 14:53 E 7 8.00 Light Rain SCT012 OVC017 68 64.9 90% 30.12 1019.6 0.06
21 13:53 E 8 7.00 Light Rain OVC015 69.1 64.9 87% 30.13 1020.1 0.02
21 12:53 E 12 G 21 10.00 Overcast OVC015 70 63 71.1 64 79% 30.15 1020.6 0.01
21 11:53 E 12 G 25 10.00 Overcast BKN015 OVC025 70 64 82% 30.15 1020.7
21 10:53 NE 6 10.00 Overcast OVC011 70 64 82% 30.16 1020.9
21 09:53 E 8 10.00 Overcast OVC007 68 64 87% 30.16 1021.1 0.01
21 08:53 E 9 10.00 Overcast OVC005 66 64 93% 30.16 1021.3
21 07:53 E 13 10.00 Overcast OVC005 64.9 63 93% 30.15 1020.8 0.01
21 06:53 E 10 5.00 Light Rain Fog/Mist BKN005 OVC049 64.9 63 66 64.9 93% 30.17 1021.6 0.08 0.22
21 05:53 E 7 4.00 Light Rain Fog/Mist FEW007 SCT043 OVC100 64.9 63 93% 30.22 1023.0 0.14
21 04:53 Calm 6.00 Light Rain Fog/Mist FEW006 BKN042 OVC055 64.9 64 97% 30.21 1023.0
21 03:53 E 5 10.00 Overcast OVC007 64.9 62.1 90% 30.21 1022.8
21 02:53 E 5 10.00 Overcast OVC010 64.9 62.1 90% 30.23 1023.5
21 01:53 NE 7 10.00 Overcast OVC012 66 61 84% 30.23 1023.7
21 00:53 N 6 10.00 Overcast OVC010 64.9 60.1 66 63 84% 30.24 1023.9
20 23:53 NE 5 10.00 Overcast OVC013 64 57.9 81% 30.25 1024.2
20 22:53 SE 10 10.00 Overcast FEW023 BKN039 OVC180 64 57.9 81% 30.24 1023.8
20 21:53 NE 6 10.00 Mostly Cloudy SCT023 BKN035 64 59 84% 30.26 1024.7
20 20:53 E 5 10.00 Overcast FEW012 BKN030 OVC033 64 57.9 81% 30.27 1024.9
20 19:53 Vrbl 3 5.00 Fog/Mist FEW012 BKN030 OVC036 64 60.1 87% 30.3 1026.0
20 18:53 E 5 10.00 Mostly Cloudy FEW012 BKN032 BKN180 64.9 59 66 63 81% 30.29 1025.6 0.02
20 17:53 N 7 10.00 Mostly Cloudy FEW012 BKN041 BKN180 64.9 59 81% 30.28 1025.4
20 16:53 E 8 10.00 Mostly Cloudy FEW012 SCT046 SCT120 BKN180 66 59 78% 30.28 1025.3
20 15:53 N 9 10.00 Overcast FEW048 BKN090 OVC110 64.9 59 81% 30.32 1026.8 0.02
20 14:53 NE 8 10.00 Light Rain FEW048 SCT075 OVC100 64 59 84% 30.34 1027.3 0.02
20 13:53 NW 5 9.00 Light Rain OVC080 64.9 55.9 73% 30.35 1027.8
20 12:53 E 10 10.00 Overcast FEW028 BKN095 OVC110 66 55 66 63 68% 30.32 1026.7
20 11:53 Vrbl 5 10.00 Overcast FEW080 SCT095 BKN110 OVC130 66 53.1 63% 30.35 1027.7
20 10:53 E 7 10.00 Overcast BKN120 OVC130 64 52 65% 30.34 1027.2
20 09:53 E 13 10.00 Mostly Cloudy FEW090 FEW120 BKN140 64 51.1 63% 30.33 1027.1
20 08:53 NE 10 10.00 Mostly Cloudy BKN130 64 50 60% 30.34 1027.1
20 07:53 E 8 10.00 Overcast BKN110 OVC130 63 50 63% 30.36 1027.8
20 06:53 E 6 10.00 Overcast BKN110 OVC140 63 51.1 63 61 65% 30.36 1027.9
20 05:53 NE 5 10.00 Mostly Cloudy BKN110 62.1 52 70% 30.35 1027.6
20 04:53 E 7 10.00 Mostly Cloudy BKN120 62.1 54 75% 30.34 1027.2
20 03:53 N 3 10.00 A Few Clouds FEW120 61 54 78% 30.35 1027.6
20 02:53 NW 3 10.00 Partly Cloudy SCT110 62.1 54 75% 30.35 1027.7
20 01:53 N 3 10.00 A Few Clouds FEW150 61 53.1 75% 30.33 1026.8
20 00:53 N 6 10.00 Partly Cloudy SCT150 SCT200 62.1 54 72 62.1 75% 30.32 1026.5
19 23:53 NE 6 10.00 Partly Cloudy SCT140 SCT200 64 53.1 68% 30.32 1026.6
19 22:53 NE 6 10.00 Mostly Cloudy SCT140 BKN200 64.9 53.1 66% 30.32 1026.5
19 21:53 Vrbl 7 10.00 Mostly Cloudy SCT150 BKN200 68 52 57% 30.31 1026.2
19 20:53 NE 6 10.00 Mostly Cloudy FEW150 BKN200 69.1 52 55% 30.3 1025.8
19 19:53 NE 10 10.00 Mostly Cloudy FEW045 FEW150 BKN250 71.1 52 51% 30.28 1025.2
19 18:53 NE 8 10.00 Mostly Cloudy FEW045 SCT150 BKN250 72 52 73.9 69.1 50% 30.27 1024.9
19 17:53 NE 9 10.00 Mostly Cloudy FEW045 SCT150 BKN250 73 53.1 50% 30.26 1024.4
19 16:53 E 7 G 18 10.00 Mostly Cloudy FEW042 SCT140 BKN250 73 52 48% 30.27 1024.8
19 15:53 Vrbl 6 10.00 Mostly Cloudy FEW042 SCT140 BKN250 72 51.1 48% 30.28 1025.0
19 14:53 N 8 10.00 Mostly Cloudy FEW042 SCT140 BKN250 70 52 53% 30.27 1024.7
19 13:53 N 9 10.00 Mostly Cloudy SCT040 BKN250 70 52 53% 30.26 1024.5
19 12:53 NW 10 10.00 Mostly Cloudy SCT037 SCT140 BKN250 69.1 52 70 61 55% 30.26 1024.5
19 11:53 NW 10 10.00 Mostly Cloudy FEW032 FEW200 BKN250 68 53.1 59% 30.24 1023.9
19 10:53 NW 13 10.00 Mostly Cloudy BKN030 BKN250 68 54 61% 30.22 1023.2
Date Time (cdt) Wind (mph) Vis. (mi.) Weather Sky Cond. Air Dwpt Max. Min. Relative Humidity Wind Chill (°F) Heat Index (°F) altimeter (in) sea level (mb) 1 hr 3 hr 6 hr
6 hour
Temperature (ºF) Pressure Precipitation (in)